TimeCST,TemperatureF,Dew PointF,Humidity,Sea Level PressureIn,VisibilityMPH,Wind Direction,Wind SpeedMPH,Gust SpeedMPH,PrecipitationIn,Events,Conditions,WindDirDegrees,DateUTC
12:00 AM,71,61,64,29.82,9,NE,4.6,,,,Mostly Cloudy,50,2013-04-05 06:00:00
12:00 AM,71.6,60.8,69,30.02,-9999.0,NE,4.6,-,N/A,,Clear,50,2013-04-05 06:00:00
1:00 AM,69.8,66.2,88,30.02,-9999.0,SW,2.3,-,N/A,,Clear,220,2013-04-05 07:00:00
2:00 AM,69.8,64.4,83,29.99,-9999.0,NNE,5.8,-,N/A,,Clear,30,2013-04-05 08:00:00
3:00 AM,72,62,62,29.81,12,East,5.8,,,,Mostly Cloudy,80,2013-04-05 09:00:00
3:00 AM,71.6,62.6,73,29.97,-9999.0,East,5.8,-,N/A,,Clear,80,2013-04-05 09:00:00
4:00 AM,71.6,62.6,73,29.98,-9999.0,ENE,2.3,-,N/A,,Clear,70,2013-04-05 10:00:00
5:00 AM,71.6,62.6,73,29.99,-9999.0,East,5.8,-,N/A,,Clear,80,2013-04-05 11:00:00
6:00 AM,72,62,63,29.84,12,NE,4.6,,,,Mostly Cloudy,50,2013-04-05 12:00:00
6:00 AM,71.6,62.6,73,30.00,-9999.0,NE,4.6,-,N/A,,Clear,50,2013-04-05 12:00:00
7:00 AM,73.4,64.4,73,30.03,-9999.0,East,8.1,-,N/A,,Clear,90,2013-04-05 13:00:00
8:00 AM,77.0,64.4,65,30.06,-9999.0,East,5.8,-,N/A,,Clear,90,2013-04-05 14:00:00
9:00 AM,81,64,47,29.91,12,ESE,8.1,,,,Scattered Clouds,110,2013-04-05 15:00:00
9:00 AM,80.6,64.4,58,30.06,6.2,ESE,8.1,-,N/A,,Scattered Clouds,110,2013-04-05 15:00:00
10:00 AM,82.4,60.8,48,30.06,6.2,East,13.8,-,N/A,,Scattered Clouds,90,2013-04-05 16:00:00
11:00 AM,82.4,60.8,48,30.05,6.2,ESE,10.4,-,N/A,,Mostly Cloudy,110,2013-04-05 17:00:00
12:00 PM,84,62,37,29.84,12,ESE,9.2,,,,Partly Cloudy,120,2013-04-05 18:00:00
12:00 PM,84.2,62.6,48,30.02,6.2,ESE,9.2,-,N/A,,Scattered Clouds,120,2013-04-05 18:00:00
1:00 PM,86.0,60.8,43,29.99,6.2,ESE,9.2,-,N/A,,Scattered Clouds,120,2013-04-05 19:00:00
2:00 PM,77.0,68.0,74,29.97,6.2,WSW,15.0,-,N/A,,Mostly Cloudy,240,2013-04-05 20:00:00
2:33 PM,77.0,69.8,78,29.98,6.2,SW,8.1,-,N/A,Thunderstorm,Mostly Cloudy,230,2013-04-05 20:33:00
3:00 PM,75,67,71,29.79,2,WNW,8.1,,,Rain-Thunderstorm,Thunderstorms and Rain,290,2013-04-05 21:00:00
3:00 PM,75.2,68.0,78,29.99,4.3,WNW,8.1,-,N/A,Rain-Thunderstorm,Thunderstorms and Rain,290,2013-04-05 21:00:00
3:25 PM,71.6,66.2,83,29.98,5.0,ENE,3.5,-,N/A,Rain,Light Rain,60,2013-04-05 21:25:00
4:00 PM,71.6,68.0,88,29.98,6.2,East,5.8,-,N/A,Rain,Light Rain,100,2013-04-05 22:00:00
5:00 PM,73.4,66.2,78,29.96,6.2,NE,3.5,-,N/A,,Mostly Cloudy,50,2013-04-05 23:00:00
6:00 PM,72,63,66,29.84,12,East,5.8,,,,Partly Cloudy,80,2013-04-06 00:00:00
6:00 PM,71.6,62.6,73,29.98,6.2,East,5.8,-,N/A,,Mostly Cloudy,80,2013-04-06 00:00:00
7:00 PM,71.6,62.6,73,29.99,6.2,East,9.2,-,N/A,,Scattered Clouds,100,2013-04-06 01:00:00
8:00 PM,71.6,62.6,73,30.02,-9999.0,ENE,8.1,-,N/A,,Clear,70,2013-04-06 02:00:00
9:00 PM,72,64,71,29.86,12,ESE,12.7,,,,Clear,120,2013-04-06 03:00:00
9:00 PM,71.6,64.4,78,30.06,-9999.0,ESE,12.7,-,N/A,,Clear,120,2013-04-06 03:00:00
10:00 PM,71.6,64.4,78,30.06,6.2,ESE,15.0,-,N/A,,Partly Cloudy,120,2013-04-06 04:00:00
11:00 PM,71.6,62.6,73,30.05,6.2,NE,6.9,-,N/A,,Partly Cloudy,40,2013-04-06 05:00:00